{"data":{"norad_id":62107,"intl_designator":"2024-220V","name":"STARLINK-33559","alt_names":[],"object_type":"PAYLOAD","status":"ACTIVE","operator":null,"country":"US","launch_date":"2024-11-25","launch_site_code":"AFETR","launch_vehicle":null,"mission":null,"orbit_class":"UNKNOWN","rcs_meters":null,"size_class":null,"mass_kg":null,"dimensions":null,"purposes":["comms"],"wikipedia_slug":null,"has_3d_model":false,"image_url":null,"decayed_at":null,"tle_current":{"epoch":"2026-05-25T00:26:17.029824Z","epoch_age_seconds":67504,"freshness":"FRESH","line1":"1 62107U 24220V   26145.01825266  .00016056  00000+0  59142-3 0  9995","line2":"2 62107  42.9988 134.5668 0000961 330.9902  29.0896 15.27596191 84869","mean_motion":15.27596191,"eccentricity":9.61e-5,"inclination_deg":42.9988,"raan_deg":134.5668,"arg_perigee_deg":330.9902,"mean_anomaly_deg":29.0896,"bstar":0.00059142,"rev_number":8486,"period_min":94.26574957989,"perigee_km":482.34125946441,"apogee_km":483.65997011397,"semimajor_km":6861.1376147892,"source":"CELESTRAK","updated_at":"2026-05-25T13:38:19.560870Z"}}}